[[{"header":{"parameterUnit":"m.s-1","parameterCategory":1,"la1":30.2991,"la2":30.254,"lo1":-89.0895,"lo2":-89.0444,"dy":0.0017,"dx":0.0017,"nx":28,"ny":28,"refTime":"2024-06-22T09:00:00:Z","depth":0,"parameterNumber":2,"parameterNumberName":"U-component_of_WINDS"},"data":[0,0,0,0,0,0,0,0,0,0,0,0,0,0,0,0,0,0,0,0,0,0,0,0,0,0,0,0,0,0,0,0,0,0,0,0,0,0,0,0,0,0,0,0,0,0,0,0,0,0,0,0,0,0,0,0,0,0,-0.2142,-0.2141,0,-0.2052,-0.2051,-0.205,-0.1967,-0.1965,-0.1964,-0.1963,-0.1871,-0.187,-0.1868,0,0,0,0,0,0,0,0,0,0,0,0,0,-0.2242,-0.2241,-0.2142,-0.2141,-0.214,-0.2052,-0.2051,-0.205,-0.1967,-0.1965,-0.1964,-0.1963,-0.1872,-0.187,-0.1868,0,0,0,0,0,0,0,0,0,0,0,0,0,-0.218,-0.224,-0.2142,-0.2088,-0.2082,-0.2052,-0.2051,-0.2049,-0.1967,-0.1965,-0.1964,-0.1962,-0.1872,-0.187,-0.1868,-0.1885,0,0,-0.1861,-0.186,0,0,0,0,0,0,0,0,-0.2184,-0.2176,-0.2097,-0.2091,-0.2085,-0.2019,-0.2052,-0.1994,-0.1967,-0.2011,-0.1963,-0.1962,-0.1922,-0.1915,-0.1902,-0.188,-0.1876,-0.1861,-0.1859,-0.1858,-0.1858,0,0,0,0,0,0,0,-0.2188,-0.218,-0.2106,-0.2096,-0.2089,-0.2068,-0.2057,-0.2041,-0.1976,-0.2007,-0.2,-0.1991,-0.1918,-0.1904,-0.1899,-0.1875,-0.1861,-0.1859,-0.1857,-0.1857,-0.1864,-0.1865,0,0,0,0,0,0,-0.2201,-0.2184,-0.2109,-0.2104,-0.2132,-0.2067,-0.2056,-0.2042,-0.1976,-0.1964,-0.1992,-0.1987,-0.1909,-0.1902,-0.1895,-0.1911,-0.1858,-0.1856,-0.1855,-0.1862,-0.1864,-0.1866,0,0,0,0,0,0,-0.2203,-0.2195,-0.2113,-0.2142,-0.213,-0.2067,-0.2052,-0.2041,-0.2027,-0.1965,-0.1953,-0.199,-0.1907,-0.1898,-0.1888,-0.1907,-0.1855,-0.1853,-0.186,-0.1863,-0.1865,-0.1943,0,0,0,0,0,0,-0.2206,-0.2196,-0.2202,-0.2143,-0.2129,-0.2107,-0.2053,-0.204,-0.2023,-0.2016,-0.196,-0.1949,-0.1905,-0.1892,-0.1886,-0.1903,-0.1852,-0.1858,-0.1861,-0.1864,-0.1938,-0.1948,-0.1956,0,0,0,0,0,-0.221,-0.2227,-0.2203,-0.2194,-0.2135,-0.2109,-0.2101,-0.205,-0.2025,-0.203,-0.1991,-0.1951,-0.1906,-0.1892,-0.1884,-0.1901,-0.1857,-0.186,-0.1864,-0.1935,-0.1946,-0.1955,0,0,0,0,0,0,-0.229,-0.2219,-0.219,-0.2189,-0.2156,-0.2095,-0.21,-0.2064,-0.2037,-0.2031,-0.1969,-0.1957,-0.1954,-0.1926,-0.1912,-0.1914,-0.1876,-0.1878,-0.1932,-0.1942,-0.1951,-0.1958,-0.185,0,0,0,0,0,-0.2308,-0.2293,-0.2231,-0.2236,-0.222,-0.2163,-0.215,-0.2114,-0.2077,-0.2062,-0.2022,-0.1987,-0.1965,-0.1952,-0.1928,-0.1934,-0.1921,-0.1941,-0.195,-0.1957,-0.196,-0.1961,-0.197,-0.1877,-0.1877,-0.1877,0,0,-0.2344,-0.2303,-0.2297,-0.2251,-0.222,-0.2206,-0.2152,-0.2139,-0.2128,-0.206,-0.2048,-0.2017,-0.1975,-0.1973,-0.197,-0.1949,-0.1983,-0.1962,-0.1968,-0.1967,-0.1966,-0.1975,-0.1983,-0.1879,-0.1879,-0.1878,0,0,-0.2402,-0.237,-0.237,-0.2341,-0.2296,-0.2258,-0.2259,-0.2203,-0.218,-0.2167,-0.2116,-0.2102,-0.2065,-0.2037,-0.2018,-0.2067,-0.2029,-0.206,-0.2105,-0.2107,-0.2115,-0.2121,-0.2139,-0.2146,-0.2063,-0.2063,-0.2064,0,-0.2453,-0.2429,-0.2375,-0.2365,-0.2347,-0.2285,-0.2285,-0.226,-0.221,-0.2198,-0.2176,-0.2129,-0.2096,-0.2086,-0.2098,-0.2085,-0.2083,-0.2067,-0.2118,-0.2124,-0.2129,-0.2145,-0.2152,-0.2068,-0.2067,-0.2067,-0.2066,0,-0.2494,-0.2479,-0.2484,-0.2438,-0.242,-0.2415,-0.236,-0.2348,-0.2314,-0.2279,-0.2266,-0.2224,-0.2192,-0.2186,-0.2153,-0.2173,-0.2161,-0.2129,-0.209,-0.2143,-0.2157,-0.2163,-0.2074,-0.2072,-0.2071,-0.207,0,0,-0.2601,-0.2524,-0.2527,-0.2506,-0.2452,-0.2439,-0.2431,-0.2399,-0.2391,-0.2358,-0.2351,-0.2321,-0.2292,-0.227,-0.2233,-0.2234,-0.2276,-0.2202,-0.22,-0.2218,-0.2296,-0.2321,-0.2329,-0.2251,-0.2252,-0.2252,-0.23,0,-0.2651,-0.2634,-0.2585,-0.2584,-0.2569,-0.251,-0.2504,-0.247,-0.2437,-0.242,-0.2382,-0.2363,-0.2325,-0.2312,-0.2311,-0.2272,-0.2291,-0.2267,-0.2244,-0.2244,-0.2257,-0.2337,-0.2363,-0.241,-0.2305,-0.2306,-0.2307,0,-0.2707,-0.2679,-0.2676,-0.2623,-0.2615,-0.261,-0.2577,-0.2561,-0.2522,-0.2497,-0.2474,-0.2432,-0.2422,-0.2385,-0.237,-0.2355,-0.2342,-0.2321,-0.2322,-0.2318,-0.2279,-0.2336,-0.2423,-0.2431,-0.2315,-0.2314,-0.2314,0,-0.2787,-0.2747,-0.2741,-0.2724,-0.2661,-0.266,-0.2634,-0.2593,-0.2577,-0.2548,-0.2537,-0.2507,-0.2491,-0.2469,-0.2421,-0.2398,-0.2411,-0.237,-0.2391,-0.2392,-0.2397,-0.2397,-0.2484,-0.2388,-0.2388,-0.2387,-0.2387,0,-0.2848,-0.2849,-0.2775,-0.2772,-0.2771,-0.2714,-0.2715,-0.2683,-0.2648,-0.2637,-0.2584,-0.2574,-0.2511,-0.2494,-0.2456,-0.245,-0.2443,-0.2423,-0.2413,-0.2428,-0.2431,-0.242,-0.2415,-0.2389,-0.2389,-0.2388,-0.2388,0,-0.2937,-0.2888,-0.2877,-0.2819,-0.2804,-0.2806,-0.2756,-0.275,-0.2714,-0.2701,-0.2694,-0.2637,-0.2615,-0.2564,-0.2529,-0.2503,-0.2507,-0.2488,-0.252,-0.2514,-0.2538,-0.2537,-0.2621,-0.263,-0.2528,-0.2529,-0.2529,0,-0.298,-0.2979,-0.2921,-0.291,-0.2886,-0.2869,-0.2852,-0.2796,-0.2781,-0.2737,-0.2736,-0.271,-0.2686,-0.2654,-0.2609,-0.2582,-0.2562,-0.2594,-0.2558,-0.2574,-0.2564,-0.2565,-0.2565,-0.2602,-0.2604,-0.2605,-0.2606,0,-0.3061,-0.3037,-0.3015,-0.2985,-0.2967,-0.2941,-0.2911,-0.2905,-0.2842,-0.2828,-0.2805,-0.2787,-0.275,-0.2725,-0.2691,-0.2664,-0.2625,-0.2617,-0.2621,-0.2637,-0.2656,-0.2647,-0.2543,-0.2616,-0.2615,-0.2614,-0.2614,-0.2613,-0.3129,-0.3126,-0.3085,-0.3062,-0.3034,-0.3008,-0.3,-0.2962,-0.2942,-0.2908,-0.2876,-0.2857,-0.2817,-0.2768,-0.2743,-0.2727,-0.2707,-0.2712,-0.2713,-0.2716,-0.2723,-0.2658,-0.2721,-0.272,-0.272,-0.272,-0.2719,0,-0.3209,-0.3179,-0.3159,-0.312,-0.3102,-0.3066,-0.3032,-0.302,-0.3003,-0.297,-0.2948,-0.2922,-0.2897,-0.285,-0.2822,-0.2818,-0.2799,-0.2812,-0.2812,-0.2807,-0.2742,-0.2742,-0.2828,-0.2828,-0.2828,-0.2828,-0.2828,-0.2828,-0.3248,-0.3241,-0.3212,-0.3191,-0.3161,-0.3141,-0.3125,-0.3101,-0.3074,-0.3047,-0.3026,-0.2996,-0.2957,-0.2926,-0.2902,-0.2889,-0.2881,-0.29,-0.2882,-0.2822,-0.2812,-0.2802,-0.2802,-0.2899,-0.2899,-0.2948,-0.2948,-0.2949]},{"header":{"parameterUnit":"m.s-1","parameterCategory":1,"la1":30.2991,"la2":30.254,"lo1":-89.0895,"lo2":-89.0444,"dy":0.0017,"dx":0.0017,"nx":28,"ny":28,"refTime":"2024-06-22T09:00:00:Z","depth":0,"parameterNumber":3,"parameterNumberName":"V-component_of_WINDS"},"data":[0,0,0,0,0,0,0,0,0,0,0,0,0,0,0,0,0,0,0,0,0,0,0,0,0,0,0,0,0,0,0,0,0,0,0,0,0,0,0,0,0,0,0,0,0,0,0,0,0,0,0,0,0,0,0,0,0,0,1.0553,1.0553,0,1.0518,1.0518,1.0518,1.0516,1.0517,1.0517,1.0518,1.0478,1.0477,1.0475,0,0,0,0,0,0,0,0,0,0,0,0,0,1.0614,1.0613,1.0553,1.0553,1.0552,1.0519,1.0518,1.0518,1.0516,1.0517,1.0517,1.0518,1.0479,1.0477,1.0475,0,0,0,0,0,0,0,0,0,0,0,0,0,1.0584,1.0613,1.0553,1.0548,1.0547,1.0519,1.0518,1.0517,1.0516,1.0517,1.0517,1.0518,1.0479,1.0477,1.0475,1.0449,0,0,1.0468,1.0467,0,0,0,0,0,0,0,0,1.0586,1.0582,1.0549,1.0548,1.0547,1.0522,1.0525,1.0494,1.0516,1.0528,1.0518,1.0518,1.0492,1.0489,1.0481,1.0447,1.0445,1.0468,1.0467,1.0466,1.0465,0,0,0,0,0,0,0,1.0588,1.0584,1.0539,1.0548,1.0547,1.0546,1.0542,1.0519,1.0507,1.0527,1.0527,1.0523,1.0492,1.0483,1.048,1.0445,1.0468,1.0466,1.0465,1.0464,1.0387,1.0386,0,0,0,0,0,0,1.0592,1.0585,1.054,1.0538,1.0569,1.0544,1.054,1.053,1.0507,1.0504,1.0522,1.0523,1.0486,1.0483,1.0479,1.0446,1.0466,1.0464,1.0463,1.0388,1.0387,1.0386,0,0,0,0,0,0,1.0593,1.0588,1.0542,1.0562,1.0556,1.0542,1.0531,1.0529,1.052,1.0504,1.0501,1.0516,1.0487,1.0482,1.0456,1.0445,1.0463,1.0461,1.0389,1.0388,1.0387,1.0381,0,0,0,0,0,0,1.0595,1.0588,1.0579,1.0562,1.0555,1.0521,1.053,1.0527,1.0517,1.0517,1.0497,1.0494,1.0487,1.046,1.0454,1.0442,1.0459,1.039,1.0388,1.0387,1.0383,1.038,1.0378,0,0,0,0,0,1.0597,1.0578,1.0579,1.0573,1.0543,1.0521,1.0517,1.051,1.0516,1.0506,1.0495,1.0495,1.0447,1.0457,1.0451,1.0438,1.039,1.0389,1.0387,1.0384,1.0381,1.0378,0,0,0,0,0,0,1.0593,1.0576,1.0576,1.0551,1.0538,1.052,1.0508,1.0507,1.049,1.0491,1.0482,1.0478,1.0453,1.0443,1.0454,1.0411,1.0419,1.0416,1.0419,1.0416,1.0414,1.0416,1.0457,0,0,0,0,0,1.059,1.0574,1.0559,1.0539,1.0532,1.0521,1.0511,1.0507,1.0492,1.0486,1.0473,1.0458,1.0439,1.0427,1.0409,1.0381,1.0376,1.0369,1.0367,1.0366,1.0363,1.0347,1.0344,1.0381,1.0381,1.0381,0,0,1.0582,1.057,1.0561,1.0538,1.0527,1.051,1.0516,1.0498,1.0485,1.0483,1.0458,1.0449,1.043,1.0404,1.0392,1.0395,1.0352,1.0364,1.0362,1.036,1.0345,1.0342,1.0338,1.0379,1.038,1.038,0,0,1.0559,1.0549,1.0531,1.052,1.0504,1.0497,1.0492,1.0475,1.0469,1.0445,1.0443,1.0427,1.0395,1.0382,1.0372,1.0344,1.0343,1.0338,1.0327,1.0312,1.0309,1.0306,1.0296,1.0292,1.0336,1.0336,1.0336,0,1.0551,1.0526,1.0521,1.0503,1.0492,1.0491,1.0472,1.0461,1.0439,1.0432,1.0436,1.0397,1.0384,1.0355,1.0348,1.034,1.0334,1.034,1.031,1.0307,1.0305,1.0295,1.0291,1.0335,1.0336,1.0336,1.0336,0,1.0517,1.05,1.0487,1.0467,1.0455,1.0436,1.0427,1.0416,1.0413,1.0405,1.038,1.0365,1.0345,1.0337,1.0334,1.0307,1.0309,1.0312,1.032,1.0301,1.0291,1.0287,1.0335,1.0335,1.0335,1.0335,0,0,1.049,1.0468,1.0463,1.0454,1.0437,1.0423,1.0404,1.0385,1.0374,1.0359,1.0342,1.0316,1.0319,1.0307,1.0302,1.0288,1.0267,1.0292,1.0292,1.0288,1.0236,1.0233,1.0229,1.0266,1.0265,1.0265,1.0237,0,1.0464,1.0432,1.0427,1.0398,1.0382,1.038,1.0364,1.035,1.0342,1.0327,1.0317,1.0299,1.0304,1.0296,1.0283,1.0272,1.0256,1.0274,1.0249,1.0248,1.0253,1.0224,1.0222,1.0196,1.0233,1.0233,1.0232,0,1.043,1.0416,1.0386,1.037,1.0363,1.0348,1.033,1.0316,1.03,1.0295,1.0282,1.0279,1.0258,1.0267,1.0238,1.025,1.0239,1.0233,1.0231,1.0228,1.0239,1.0219,1.0188,1.0184,1.0226,1.0227,1.0227,0,1.0413,1.0386,1.0364,1.0357,1.0338,1.0328,1.0319,1.0305,1.0293,1.0277,1.027,1.0251,1.024,1.0225,1.0217,1.0224,1.0188,1.0196,1.0182,1.0182,1.0174,1.0174,1.0139,1.0168,1.0168,1.0168,1.0168,0,1.0385,1.0366,1.0356,1.0343,1.0322,1.0316,1.0295,1.0286,1.0273,1.0257,1.0255,1.0239,1.0229,1.0212,1.0205,1.0182,1.0177,1.0172,1.017,1.0172,1.0172,1.0164,1.0165,1.0167,1.0167,1.0167,1.0168,0,1.0362,1.0355,1.0331,1.0316,1.0312,1.0297,1.0283,1.0269,1.0262,1.0242,1.0236,1.0224,1.0204,1.0194,1.0169,1.0164,1.0137,1.0137,1.0143,1.0142,1.0128,1.0129,1.0086,1.008,1.0113,1.0113,1.0113,0,1.0344,1.033,1.0314,1.0304,1.0295,1.0279,1.0268,1.0261,1.0249,1.0231,1.0219,1.0199,1.0183,1.0151,1.0139,1.0119,1.0118,1.0104,1.0115,1.0117,1.0117,1.0118,1.0116,1.0102,1.0102,1.0102,1.0101,0,1.0314,1.0311,1.0296,1.0279,1.0266,1.0253,1.0239,1.0231,1.0222,1.0208,1.0189,1.0176,1.0151,1.0131,1.0111,1.0101,1.0099,1.0098,1.0094,1.0095,1.0099,1.0096,1.0137,1.0099,1.0099,1.0099,1.01,1.01,1.0292,1.028,1.0266,1.0249,1.0239,1.0226,1.0213,1.0204,1.0188,1.0168,1.0165,1.0143,1.0128,1.0101,1.009,1.0072,1.0075,1.0069,1.0067,1.0066,1.0065,1.0103,1.0069,1.0069,1.0069,1.0069,1.0069,0,1.0261,1.0253,1.0237,1.0219,1.0205,1.0207,1.0192,1.018,1.0162,1.0148,1.0133,1.011,1.009,1.0077,1.0057,1.0046,1.0044,1.0041,1.0041,1.0038,1.0064,1.0069,1.0042,1.0042,1.0042,1.0042,1.0042,1.0042,1.0243,1.0222,1.0217,1.019,1.0182,1.0162,1.0153,1.0141,1.013,1.0105,1.009,1.0082,1.0068,1.0047,1.0029,1.0025,1.0018,1.0014,1.001,1.0034,1.0037,1.0039,1.0045,1.0013,1.0013,0.9987,0.9986,0.9986]}]]